Simultaneous Nadir Overpasses (SNOs) Predictions

Prediction of SNOs near equator between NOAA-19 and NPP Satellite Orbit:

Table of predicted SNOs near equator for the next 14.0 days since TLE Epoch: 9/14/2012
Index Date (NOAA-19) Time (NOAA-19) NOAA-19 Lat,Lon Date (NPP) Time (NPP) NPP Lat,Lon Distance(km) Time Diff (sec)
1 09/15/2012 18:52:48 -30.00, 95.00 09/15/2012 18:47:01 -29.78, 94.00 98.94 347
2 09/15/2012 19:43:59 29.96, -97.79 09/15/2012 19:37:50 29.78, -98.70 90.09 369
3 09/15/2012 20:34:53 -29.99, 69.48 09/15/2012 20:28:32 -29.85, 68.61 85.24 381
4 09/15/2012 21:26:04 29.95,-123.31 09/15/2012 21:19:20 29.79,-124.08 76.33 404
5 09/15/2012 22:16:58 -29.99, 43.96 09/15/2012 22:10:02 -29.85, 43.23 71.45 416
6 09/15/2012 23:08:09 29.95,-148.83 09/15/2012 23:00:50 29.80,-149.46 62.61 439
7 09/15/2012 23:59:03 -29.98, 18.44 09/15/2012 23:51:32 -29.86, 17.86 57.70 451
8 09/16/2012 00:50:15 30.00,-174.36 09/16/2012 00:42:22 29.92,-174.86 48.87 473
9 09/16/2012 01:41:08 -29.98, -7.08 09/16/2012 01:33:02 -29.87, -7.52 44.01 486
10 09/16/2012 02:32:20 29.99, 160.12 09/16/2012 02:23:52 29.93, 159.76 35.06 508
11 09/16/2012 03:23:13 -29.97, -32.60 09/16/2012 03:14:33 -29.93, -32.91 30.35 520
12 09/16/2012 04:14:25 29.99, 134.60 09/16/2012 04:05:22 29.94, 134.38 21.33 543
13 09/16/2012 05:05:18 -29.97, -58.12 09/16/2012 04:56:03 -29.94, -58.29 16.52 555
14 09/16/2012 05:56:30 29.98, 109.08 09/16/2012 05:46:52 29.95, 109.01 7.99 578
15 09/16/2012 06:47:23 -29.96, -83.64 09/16/2012 06:37:33 -29.95, -83.66 2.91 590
16 09/16/2012 07:31:25 4.93, 89.72 09/16/2012 07:21:25 5.49, 89.57 64.67 600
17 09/28/2012 02:04:31 29.97, 167.10 09/28/2012 01:58:23 29.75, 166.16 94.70 368
18 09/28/2012 02:55:25 -29.95, -25.62 09/28/2012 02:49:05 -29.80, -26.53 89.63 380
19 09/28/2012 03:46:36 29.97, 141.58 09/28/2012 03:39:54 29.82, 140.76 80.94 402
20 09/28/2012 04:37:30 -29.95, -51.14 09/28/2012 04:30:35 -29.80, -51.90 75.85 415
21 09/28/2012 05:28:41 29.96, 116.06 09/28/2012 05:21:24 29.82, 115.39 67.20 437
22 09/28/2012 06:19:35 -29.95, -76.66 09/28/2012 06:12:05 -29.81, -77.28 62.13 450
23 09/28/2012 07:10:46 29.96, 90.54 09/28/2012 07:02:54 29.83, 90.01 53.52 472
24 09/28/2012 08:01:40 -29.9
